[[{"header":{"parameterUnit":"m.s-1","parameterCategory":1,"la1":30.2991,"la2":30.254,"lo1":-89.0895,"lo2":-89.0444,"dy":0.0017,"dx":0.0017,"nx":28,"ny":28,"refTime":"2023-10-26T21:00:00:Z","depth":0,"parameterNumber":2,"parameterNumberName":"U-component_of_WINDS"},"data":[0,0,0,0,0,0,0,0,0,0,0,0,0,0,0,0,0,0,0,0,0,0,0,0,0,0,0,0,0,0,0,0,0,0,0,0,0,0,0,0,0,0,0,0,0,0,0,0,0,0,0,0,0,0,0,0,0,0,-2.8699,-2.8699,0,-2.8634,-2.8634,-2.8633,-2.8507,-2.8504,-2.8502,-2.8499,-2.8436,-2.8437,-2.8437,0,0,0,0,0,0,0,0,0,0,0,0,0,-2.8718,-2.8719,-2.8699,-2.8699,-2.8698,-2.8635,-2.8634,-2.8633,-2.8507,-2.8504,-2.8501,-2.8498,-2.8436,-2.8437,-2.8437,0,0,0,0,0,0,0,0,0,0,0,0,0,-2.8688,-2.8719,-2.87,-2.8627,-2.862,-2.8635,-2.8634,-2.8633,-2.8508,-2.8504,-2.85,-2.8497,-2.8436,-2.8437,-2.8437,-2.8518,0,0,-2.844,-2.8441,0,0,0,0,0,0,0,0,-2.869,-2.8687,-2.8639,-2.8632,-2.8624,-2.8575,-2.8617,-2.8594,-2.8509,-2.8551,-2.8499,-2.8495,-2.8485,-2.8482,-2.8478,-2.8515,-2.8512,-2.844,-2.8441,-2.8441,-2.8442,0,0,0,0,0,0,0,-2.8692,-2.8689,-2.8674,-2.8638,-2.8629,-2.8599,-2.8591,-2.8612,-2.854,-2.8547,-2.8537,-2.8531,-2.8481,-2.8478,-2.8476,-2.8511,-2.844,-2.8441,-2.8442,-2.8442,-2.8613,-2.8617,0,0,0,0,0,0,-2.8704,-2.8692,-2.8676,-2.8672,-2.8648,-2.8602,-2.8593,-2.8595,-2.8539,-2.8527,-2.8534,-2.8525,-2.8478,-2.8475,-2.8473,-2.8564,-2.8441,-2.8442,-2.8443,-2.8609,-2.8614,-2.8618,0,0,0,0,0,0,-2.8705,-2.8704,-2.8678,-2.8679,-2.8674,-2.8606,-2.8609,-2.8595,-2.8592,-2.853,-2.8517,-2.8544,-2.8475,-2.8472,-2.8508,-2.856,-2.8443,-2.8444,-2.8604,-2.861,-2.8616,-2.8748,0,0,0,0,0,0,-2.8706,-2.8705,-2.8734,-2.8681,-2.8674,-2.8714,-2.8612,-2.8597,-2.8593,-2.8581,-2.8536,-2.8524,-2.8472,-2.8507,-2.8509,-2.856,-2.8444,-2.8599,-2.8607,-2.8614,-2.8738,-2.8757,-2.8774,0,0,0,0,0,-2.8707,-2.8774,-2.8736,-2.8735,-2.8709,-2.8717,-2.8713,-2.865,-2.8598,-2.8627,-2.8588,-2.8526,-2.8555,-2.8512,-2.8513,-2.8565,-2.8596,-2.8605,-2.8614,-2.873,-2.8754,-2.8773,0,0,0,0,0,0,-2.8835,-2.8765,-2.8723,-2.8774,-2.8752,-2.8695,-2.873,-2.8676,-2.867,-2.8659,-2.8581,-2.8572,-2.8619,-2.8595,-2.8549,-2.8641,-2.8565,-2.8575,-2.8654,-2.8676,-2.8693,-2.8698,-2.8445,0,0,0,0,0,-2.887,-2.8881,-2.8819,-2.8871,-2.8862,-2.8799,-2.88,-2.8753,-2.8728,-2.8718,-2.8681,-2.866,-2.8664,-2.8669,-2.8669,-2.8735,-2.8724,-2.8771,-2.8789,-2.8804,-2.8813,-2.8847,-2.8867,-2.8647,-2.8647,-2.8647,0,0,-2.894,-2.8904,-2.8915,-2.8896,-2.8873,-2.8888,-2.8792,-2.8811,-2.8821,-2.8721,-2.8753,-2.8726,-2.8697,-2.8749,-2.877,-2.8731,-2.8871,-2.8815,-2.8827,-2.8828,-2.8858,-2.8879,-2.8898,-2.8653,-2.8652,-2.8651,0,0,-2.9077,-2.905,-2.909,-2.9069,-2.9037,-2.8994,-2.9004,-2.8956,-2.8934,-2.8964,-2.889,-2.8902,-2.8911,-2.8894,-2.8886,-2.9019,-2.8962,-2.9021,-2.9114,-2.9148,-2.9165,-2.918,-2.9228,-2.9246,-2.9031,-2.9031,-2.9031,0,-2.9169,-2.9186,-2.9117,-2.9142,-2.9136,-2.9046,-2.9087,-2.9071,-2.9041,-2.9039,-2.8996,-2.9006,-2.898,-2.9027,-2.906,-2.9056,-2.9066,-2.9026,-2.9168,-2.9182,-2.9195,-2.924,-2.9258,-2.9038,-2.9038,-2.9037,-2.9036,0,-2.9302,-2.9316,-2.9353,-2.9325,-2.9323,-2.9356,-2.9293,-2.93,-2.9255,-2.9218,-2.9251,-2.9217,-2.921,-2.9218,-2.9173,-2.9259,-2.9236,-2.9182,-2.9104,-2.9225,-2.9266,-2.9282,-2.9049,-2.9046,-2.9044,-2.9042,0,0,-2.9516,-2.945,-2.9465,-2.9452,-2.941,-2.942,-2.945,-2.9442,-2.945,-2.9433,-2.9456,-2.9467,-2.9417,-2.9409,-2.9362,-2.9392,-2.95,-2.9334,-2.9332,-2.9366,-2.9594,-2.9635,-2.9656,-2.9463,-2.9466,-2.9468,-2.9596,0,-2.9643,-2.9688,-2.9627,-2.9686,-2.9699,-2.9615,-2.9641,-2.9619,-2.9586,-2.9593,-2.9556,-2.9565,-2.9498,-2.9493,-2.9519,-2.9482,-2.9545,-2.9471,-2.9485,-2.9486,-2.9494,-2.9677,-2.972,-2.9842,-2.9612,-2.9614,-2.9616,0,-2.9796,-2.9786,-2.9846,-2.9802,-2.9805,-2.9829,-2.9818,-2.9825,-2.98,-2.9774,-2.9766,-2.971,-2.9738,-2.9664,-2.9702,-2.9653,-2.9655,-2.9638,-2.9642,-2.964,-2.9558,-2.9681,-2.988,-2.9898,-2.9641,-2.9639,-2.9637,0,-2.9946,-2.9948,-2.9984,-2.9976,-2.9925,-2.9944,-2.9924,-2.9895,-2.9894,-2.9885,-2.9885,-2.988,-2.9877,-2.9875,-2.982,-2.9771,-2.9865,-2.9786,-2.9845,-2.9847,-2.9868,-2.9867,-3.0071,-2.987,-2.987,-2.987,-2.9869,0,-3.0094,-3.0134,-3.0051,-3.0073,-3.0117,-3.0048,-3.0094,-3.0065,-3.004,-3.0057,-2.9985,-3.0002,-2.9929,-2.9939,-2.9897,-2.9935,-2.9935,-2.9915,-2.9903,-2.9921,-2.9924,-2.9921,-2.9911,-2.9875,-2.9874,-2.9873,-2.9872,0,-3.0268,-3.0214,-3.0248,-3.0198,-3.0186,-3.022,-3.0178,-3.0197,-3.016,-3.0182,-3.0184,-3.0126,-3.0134,-3.008,-3.0078,-3.005,-3.0109,-3.0083,-3.0117,-3.0109,-3.0171,-3.0166,-3.0379,-3.0404,-3.0189,-3.0191,-3.0193,0,-3.0365,-3.0394,-3.0347,-3.0353,-3.0336,-3.0346,-3.0345,-3.028,-3.0283,-3.0257,-3.028,-3.0283,-3.0281,-3.0299,-3.0258,-3.0257,-3.023,-3.0305,-3.0229,-3.0247,-3.0231,-3.023,-3.0233,-3.0321,-3.0323,-3.0326,-3.0327,0,-3.0544,-3.0516,-3.0517,-3.051,-3.0511,-3.0502,-3.0489,-3.0498,-3.0427,-3.0434,-3.0442,-3.0441,-3.044,-3.0444,-3.0435,-3.0416,-3.0361,-3.0352,-3.0365,-3.0384,-3.0403,-3.0393,-3.016,-3.0347,-3.0345,-3.0343,-3.0342,-3.0342,-3.0682,-3.0705,-3.0675,-3.0679,-3.0663,-3.0652,-3.0668,-3.0633,-3.0638,-3.0631,-3.0593,-3.0608,-3.0584,-3.0566,-3.0553,-3.0565,-3.0529,-3.0549,-3.0554,-3.0559,-3.0571,-3.0402,-3.0563,-3.0563,-3.0562,-3.0561,-3.0561,0,-3.0857,-3.0835,-3.0839,-3.0823,-3.0827,-3.0774,-3.0757,-3.0764,-3.0778,-3.076,-3.076,-3.077,-3.0774,-3.0733,-3.0733,-3.075,-3.0725,-3.0752,-3.075,-3.0747,-3.0602,-3.0591,-3.0772,-3.0772,-3.0772,-3.0772,-3.0772,-3.0772,-3.0949,-3.0984,-3.0953,-3.098,-3.0957,-3.097,-3.0965,-3.0956,-3.0941,-3.0955,-3.0958,-3.0931,-3.0905,-3.0902,-3.0904,-3.0892,-3.0895,-3.0931,-3.0911,-3.0777,-3.0757,-3.0737,-3.0725,-3.0932,-3.0933,-3.1054,-3.1055,-3.1056]},{"header":{"parameterUnit":"m.s-1","parameterCategory":1,"la1":30.2991,"la2":30.254,"lo1":-89.0895,"lo2":-89.0444,"dy":0.0017,"dx":0.0017,"nx":28,"ny":28,"refTime":"2023-10-26T21:00:00:Z","depth":0,"parameterNumber":3,"parameterNumberName":"V-component_of_WINDS"},"data":[0,0,0,0,0,0,0,0,0,0,0,0,0,0,0,0,0,0,0,0,0,0,0,0,0,0,0,0,0,0,0,0,0,0,0,0,0,0,0,0,0,0,0,0,0,0,0,0,0,0,0,0,0,0,0,0,0,0,0.4166,0.4166,0,0.418,0.418,0.418,0.4138,0.4136,0.4135,0.4134,0.4149,0.415,0.4152,0,0,0,0,0,0,0,0,0,0,0,0,0,0.4107,0.4108,0.4166,0.4166,0.4166,0.418,0.418,0.418,0.4138,0.4136,0.4135,0.4133,0.4148,0.415,0.4152,0,0,0,0,0,0,0,0,0,0,0,0,0,0.4128,0.4108,0.4166,0.4147,0.4145,0.418,0.418,0.418,0.4138,0.4136,0.4134,0.4133,0.4148,0.415,0.4152,0.4206,0,0,0.416,0.4161,0,0,0,0,0,0,0,0,0.4126,0.413,0.415,0.4148,0.4147,0.4155,0.4164,0.4189,0.4139,0.4141,0.4134,0.4132,0.4153,0.4154,0.4161,0.4207,0.4207,0.416,0.4161,0.4162,0.4163,0,0,0,0,0,0,0,0.4125,0.4129,0.4171,0.415,0.4148,0.4139,0.414,0.4169,0.4157,0.4141,0.4138,0.414,0.4151,0.4159,0.4161,0.4207,0.416,0.4162,0.4163,0.4164,0.4302,0.4304,0,0,0,0,0,0,0.4126,0.4128,0.4171,0.4172,0.4132,0.4141,0.4142,0.4154,0.4157,0.4156,0.4141,0.4138,0.4156,0.4159,0.4162,0.4227,0.4162,0.4165,0.4166,0.4299,0.4302,0.4304,0,0,0,0,0,0,0.4125,0.413,0.417,0.4149,0.4154,0.4144,0.4158,0.4156,0.4163,0.4158,0.4156,0.4151,0.4154,0.4158,0.4196,0.4227,0.4166,0.4168,0.4297,0.43,0.4303,0.4358,0,0,0,0,0,0,0.4123,0.413,0.4149,0.415,0.4155,0.4204,0.416,0.4157,0.4167,0.4163,0.4166,0.4165,0.4153,0.4193,0.4198,0.4229,0.417,0.4294,0.4298,0.4302,0.4353,0.4362,0.437,0,0,0,0,0,0.4121,0.4163,0.415,0.4156,0.4179,0.4206,0.4208,0.4194,0.417,0.419,0.4187,0.4165,0.4223,0.4197,0.4203,0.4235,0.4292,0.4297,0.4302,0.4349,0.4361,0.437,0,0,0,0,0,0,0.4166,0.4163,0.4148,0.4192,0.4199,0.4198,0.4223,0.4206,0.422,0.4216,0.4197,0.4198,0.424,0.4241,0.4213,0.4289,0.4253,0.426,0.4287,0.4298,0.4307,0.4306,0.4172,0,0,0,0,0,0.4181,0.4202,0.4198,0.4237,0.4242,0.4232,0.4243,0.4232,0.4239,0.4242,0.4241,0.425,0.427,0.4284,0.4302,0.4353,0.4355,0.4378,0.4387,0.4394,0.44,0.4431,0.4442,0.4321,0.4321,0.4321,0,0,0.4212,0.4213,0.4227,0.4246,0.4251,0.4275,0.4235,0.4261,0.428,0.4246,0.4282,0.4282,0.4291,0.4336,0.4356,0.4338,0.4434,0.44,0.4406,0.4408,0.4437,0.4449,0.4459,0.4324,0.4323,0.4323,0,0,0.4281,0.4283,0.4317,0.4323,0.4331,0.4324,0.4333,0.4335,0.4334,0.437,0.4347,0.4369,0.4403,0.4411,0.442,0.4496,0.4477,0.4502,0.4548,0.4578,0.4588,0.4596,0.4627,0.4638,0.4508,0.4508,0.4508,0,0.4319,0.4354,0.4337,0.4366,0.4377,0.4347,0.4383,0.439,0.4403,0.4412,0.4391,0.4436,0.4439,0.4489,0.4508,0.4514,0.4526,0.4502,0.4588,0.4596,0.4604,0.4633,0.4644,0.4511,0.4511,0.4511,0.451,0,0.4401,0.4426,0.4453,0.4468,0.4481,0.4513,0.4503,0.4519,0.4507,0.4503,0.4542,0.4546,0.4566,0.4576,0.4563,0.4624,0.4614,0.4591,0.4555,0.4619,0.4646,0.4657,0.4516,0.4515,0.4514,0.4513,0,0,0.4499,0.4506,0.4516,0.4524,0.4532,0.4551,0.4583,0.4603,0.4619,0.4629,0.4658,0.4689,0.4669,0.4679,0.4667,0.4694,0.4758,0.4668,0.4668,0.4687,0.483,0.4849,0.4862,0.4745,0.4747,0.4749,0.483,0,0.457,0.4625,0.4612,0.4667,0.4692,0.4666,0.4694,0.4703,0.4701,0.4723,0.4721,0.4745,0.4715,0.4721,0.4746,0.4745,0.4787,0.4739,0.4774,0.4775,0.4775,0.4875,0.4895,0.4971,0.484,0.4842,0.4843,0,0.4659,0.4675,0.4733,0.474,0.475,0.4776,0.4795,0.4815,0.4825,0.4823,0.4835,0.482,0.4854,0.4817,0.4865,0.4833,0.4846,0.4849,0.4851,0.4856,0.4815,0.4885,0.4994,0.5007,0.4859,0.4857,0.4856,0,0.4729,0.4764,0.4804,0.4811,0.4819,0.4839,0.4843,0.4852,0.4866,0.4883,0.4892,0.4913,0.4925,0.4942,0.4933,0.4906,0.4985,0.4946,0.4986,0.4986,0.5005,0.5004,0.5121,0.5009,0.5009,0.5009,0.5008,0,0.4811,0.4848,0.4836,0.4861,0.4903,0.4889,0.4931,0.4932,0.4941,0.4967,0.4945,0.4971,0.4956,0.4981,0.4975,0.5018,0.5023,0.5023,0.5021,0.5027,0.5027,0.5037,0.5032,0.5012,0.5011,0.501,0.501,0,0.4895,0.4888,0.4931,0.4936,0.4939,0.497,0.4975,0.4999,0.4996,0.503,0.5037,0.5033,0.5062,0.5055,0.5085,0.5081,0.5137,0.5127,0.5134,0.5132,0.5174,0.5171,0.5303,0.5321,0.5195,0.5196,0.5197,0,0.4949,0.4978,0.4987,0.5003,0.5009,0.5035,0.505,0.5038,0.5054,0.507,0.5094,0.512,0.5141,0.5188,0.5189,0.5213,0.5206,0.525,0.5209,0.5215,0.521,0.521,0.5214,0.5259,0.5261,0.5262,0.5263,0,0.5047,0.5043,0.5065,0.5087,0.5106,0.5122,0.5137,0.5151,0.514,0.5161,0.519,0.5206,0.5239,0.5267,0.529,0.5296,0.5279,0.5275,0.5287,0.5294,0.5298,0.53,0.5159,0.5273,0.5272,0.5271,0.5271,0.527,0.512,0.5146,0.5157,0.5183,0.5193,0.5208,0.5233,0.5234,0.5258,0.5284,0.5275,0.5309,0.5322,0.5352,0.5361,0.5389,0.5372,0.5387,0.5391,0.5396,0.5403,0.5291,0.5392,0.5392,0.5392,0.5391,0.5391,0,0.5219,0.5226,0.525,0.5272,0.5294,0.5275,0.5291,0.5311,0.5342,0.5355,0.5377,0.5412,0.544,0.5444,0.5471,0.5493,0.5486,0.5501,0.55,0.5503,0.5415,0.5404,0.5506,0.5506,0.5506,0.5506,0.5506,0.5506,0.5274,0.5317,0.5315,0.5364,0.5371,0.5405,0.5416,0.5431,0.5442,0.5483,0.5506,0.5508,0.5519,0.5547,0.5572,0.5573,0.5585,0.5603,0.5601,0.552,0.5508,0.5497,0.5487,0.5605,0.5606,0.5688,0.5688,0.5689]}]]